Regional Weather Roundup
Issued by NWS

Home | Current Version | Previous Version | Graphics & Text | Print | Product List | Glossary On
Versions: 1 2 3 4 5 6 7 8 9 10 11 12 13 14 15 16 17 18 19 20 21 22 23 24 25 26 27 28 29 30 31 32 33 34 35 36 37 38 39 40 41 42 43 44 45 46 47 48 49 50
000
ASUS43 KOAX 171902
RWRNE

WEATHER ROUNDUP FOR NEBRASKA
NATIONAL WEATHER SERVICE OMAHA NE
100 PM CST SAT FEB 17 2018

NOTES: SATELLITE DATA IS BEING USED TO AUGMENT CLOUD COVER ABOVE
       12000 FEET.
       "FAIR" INDICATES FEW OR NO CLOUDS BELOW 12,000 FEET WITH NO
       SIGNIFICANT WEATHER AND/OR OBSTRUCTIONS TO VISIBILITY.


NEZ001>004-019>022-054>056-172000-
NEBRASKA PANHANDLE

CITY           SKY/WX    TMP DP  RH WIND       PRES   REMARKS
SCOTTSBLUFF    SUNNY     45  16  31 NW7       30.00F
ALLIANCE       SUNNY     43  15  32 W18       30.01F
CHADRON        SUNNY     34  23  64 NW7       30.03F WCI  28
GORDON         FAIR      33  22  64 SW9       30.03F WCI  26
KIMBALL        SUNNY     45  11  25 NW20G36   30.02F
SIDNEY         SUNNY     46  14  27 NW22G31   30.04F
$$

NEZ057>060-069>072-079>082-172000-
SOUTHWEST NEBRASKA

CITY           SKY/WX    TMP DP  RH WIND       PRES   REMARKS
NORTH PLATTE   SUNNY     46  22  38 NW17      30.06F
IMPERIAL       SUNNY     46  18  32 NW17      30.09S
LEXINGTON      SUNNY     43  27  53 W14       30.07S
MCCOOK         SUNNY     47  24  40 NW18G26   30.10S
OGALLALA       SUNNY     47  19  32 W24       30.05F
$$

NEZ005>010-023>029-035>040-094-172000-
NORTH CENTRAL NEBRASKA

CITY           SKY/WX    TMP DP  RH WIND       PRES   REMARKS
VALENTINE      MOSUNNY   38  23  55 NW15G24   30.04F WCI  29
AINSWORTH      MOSUNNY   37  25  60 NW15      30.05S WCI  28
BROKEN BOW     SUNNY     43  25  49 NW15      30.04R
O`NEILL        SUNNY     38  28  66 NW21G26   30.04S WCI  28
ORD            SUNNY     45  24  43 N15G24    30.03R
THEDFORD       SUNNY     41  23  48 NW14G22   30.05F
$$

NEZ041-046>049-061>064-073>077-083>087-172000-
SOUTH CENTRAL NEBRASKA

CITY           SKY/WX    TMP DP  RH WIND       PRES   REMARKS
GRAND ISLAND   SUNNY     46  24  42 W16G23    30.06S
AURORA         SUNNY     46  22  38 NW18      30.05F
HASTINGS       SUNNY     45  23  42 W13       30.07S
HEBRON         SUNNY     51  19  28 NW10      30.08R
HOLDREGE       SUNNY     47  24  41 NW13G18   30.07F
KEARNEY        SUNNY     46  23  40 NW14      30.07F
YORK           SUNNY     46  25  42 NW14      30.05S
$$

NEZ011>018-030>034-042>045-172000-
NORTHEAST NEBRASKA

CITY           SKY/WX    TMP DP  RH WIND       PRES   REMARKS
NORFOLK        SUNNY     40  25  55 NW22      30.01R WCI  30
ALBION         SUNNY     43  24  46 NW17G24   30.03R
BLAIR          SUNNY     42  29  60 NW9G18    30.01S
COLUMBUS       SUNNY     40  26  57 NW13      30.05R WCI  32
FREMONT        SUNNY     44  28  52 NW9       30.04R
TEKAMAH        SUNNY     41  29  62 NW12      30.03R
WAYNE          SUNNY     38  26  62 NW14      30.02R WCI  30
$$

NEZ050>053-065>068-078-088>093-172000-
SOUTHEAST NEBRASKA

CITY           SKY/WX    TMP DP  RH WIND       PRES   REMARKS
LINCOLN        SUNNY     49  22  34 N13       30.06S
OMAHA EPPLEY   SUNNY     45  27  49 NW17G23   30.02R
BEATRICE       SUNNY     51  23  34 N17G24    30.06R
FALLS CITY     SUNNY     48  26  42 NW14G24   30.05R
NEBRASKA CITY  SUNNY     47  29  50 NW13G18   30.03R
PLATTSMOUTH    SUNNY     44  30  57 NW13      30.02S
$$

NEZ044-045-051>053-067-172000-
OMAHA AREA

CITY           SKY/WX    TMP DP  RH WIND       PRES   REMARKS
OMAHA EPPLEY   SUNNY     45  27  49 NW17G23   30.02R
BLAIR          SUNNY     42  29  60 NW9G18    30.01S
FREMONT        SUNNY     44  28  52 NW9       30.04R
MILLARD        SUNNY     45  29  54 NW12      30.03S
OFFUTT AFB     SUNNY     46  26  47 NW10      30.02R
PLATTSMOUTH    SUNNY     44  30  57 NW13      30.02S
WAHOO          FAIR      44  27  51 NW13      30.03S
$$




USA.gov is the U.S. government's official web portal to all federal, state and local government web resources and services.